Stations météo

Publicité
Rouen, France (7037): Température de l'air & dewpoint: 10.08.2017 17:00:00 - 16.08.2017 17:00:00 (CEST)Rouen, France (7037): Température de l'air 5cm: 10.08.2017 17:00:00 - 16.08.2017 17:00:00 (CEST)Rouen, France (7037): Température de l'air -20cm & Température de l'air -100cm: 10.08.2017 17:00:00 - 16.08.2017 17:00:00 (CEST)Rouen, France (7037): Vitesse du vent & gusts: 10.08.2017 17:00:00 - 16.08.2017 17:00:00 (CEST)Rouen, France (7037): Direction du vent: 10.08.2017 17:00:00 - 16.08.2017 17:00:00 (CEST)Rouen, France (7037): reduced air pressure: 10.08.2017 17:00:00 - 16.08.2017 17:00:00 (CEST)Rouen, France (7037): visibility: 10.08.2017 17:00:00 - 16.08.2017 17:00:00 (CEST)Rouen, France (7037): Ensoleillement: 10.08.2017 17:00:00 - 16.08.2017 17:00:00 (CEST)Rouen, France (7037): Quantités de précipitations: 10.08.2017 17:00:00 - 16.08.2017 17:00:00 (CEST)
Date & Time tt [°C] td [°C] tt 5cm [°C] tt -20cm [°C] tt -100cm [°C] ff [km/h] ff [knt] fx [km/h] fx [knt] dd ppp [hPa] vv [km] sd [min] rr [mm]
16.08.2017 17:00:00 24,9 11,1 27,0 18,9 17,0 13 7 25 13 SSE 1019,4 60 46 0,0
16.08.2017 16:00:00 24,4 11,4 28,6 18,6 17,0 11 6 24 13 S 1019,9 55 60 0,0
16.08.2017 15:00:00 24,3 10,2 30,5 18,3 17,0 13 7 23 13 S 1019,8 60 60 0,0
16.08.2017 14:00:00 23,3 9,7 25,3 18,2 17,0 6 3 12 7 SSE 1020,6 60 47 0,0
16.08.2017 13:00:00 19,9 10,9 22,5 18,1 17,0 6 3 10 6 SSW 1021,4 19 6 0,0
16.08.2017 12:00:00 19,0 12,7 21,3 18,0 17,0 6 3 9 5 S 1021,6 58 0 0,0
16.08.2017 11:00:00 17,3 12,8 19,8 18,1 17,0 4 2 9 5 E 1021,8 51 1 0,0
16.08.2017 10:00:00 15,1 14,5 15,9 18,2 17,0 2 1 6 3 E 1022,0 11 0 0,0
16.08.2017 09:00:00 14,0 13,5 12,1 18,3 17,0 0 0 3 1 N 1022,1 8 0 0,0
16.08.2017 08:00:00 11,4 10,9 9,0 18,5 17,0 0 0 6 3 N 1021,9 4,7 0 0,0
16.08.2017 07:00:00 10,0 9,5 5,2 18,7 17,0 4 2 6 4 SSE 1021,8 0,3 0 0,0
16.08.2017 06:00:00 10,7 10,1 4,6 18,9 17,0 3 1 10 5 NNE 1021,3 1,0 0 0,2
16.08.2017 05:00:00 11,0 10,4 4,1 19,1 17,0 4 2 10 5 NE 1021,3 0,4 0 0,0
16.08.2017 04:00:00 10,9 10,3 4,2 19,3 16,9 5 3 6 3 NW 1021,5 1,4 0 0,0
16.08.2017 03:00:00 10,7 9,9 4,4 19,5 17,0 3 2 6 3 W 1021,6 0,8 0 0,0
16.08.2017 02:00:00 12,0 10,9 5,5 19,7 17,0 4 2 9 5 W 1021,5 49 0 0,0
16.08.2017 01:00:00 12,8 11,2 7,6 19,8 17,0 8 4 9 5 WNW 1021,4 60 0 0,0
16.08.2017 00:00:00 13,9 11,2 8,7 19,9 16,9 6 3 13 7 NW 1021,1 59 0 0,0
15.08.2017 23:00:00 15,4 11,8 13,2 20,0 16,9 8 5 14 8 WNW 1020,8 60 0 0,0
15.08.2017 22:00:00 17,2 11,7 15,5 20,0 16,9 10 5 19 10 NNW 1019,9 60 0 0,0
15.08.2017 21:00:00 19,0 12,3 18,1 20,1 16,9 11 6 25 14 NW 1019,0 60 8 0,0
15.08.2017 20:00:00 21,0 12,9 23,3 20,0 16,9 17 9 28 15 NW 1018,1 55 48 0,0
15.08.2017 19:00:00 23,2 13,7 24,4 19,8 16,9 19 10 30 16 NNW 1017,2 58 45 0,0
15.08.2017 18:00:00 23,5 13,7 26,5 19,6 16,9 19 10 29 16 WNW 1016,8 60 53 0,0
15.08.2017 17:00:00 23,9 13,7 27,1 19,4 16,9 16 9 29 15 W 1016,8 60 43 0,0
15.08.2017 16:00:00 24,3 15,0 25,8 19,2 16,9 16 8 33 18 WNW 1016,4 60 43 0,0
15.08.2017 15:00:00 23,2 15,8 25,2 19,0 16,9 15 8 31 17 WNW 1016,3 10 26 0,0
15.08.2017 14:00:00 22,7 15,5 25,8 18,8 16,9 13 7 24 13 WNW 1015,8 60 35 0,0
15.08.2017 13:00:00 22,2 16,2 25,4 18,7 16,9 14 8 25 13 WNW 1015,3 46 52 0,0
15.08.2017 12:00:00 20,3 16,5 21,8 18,7 16,9 14 8 23 12 W 1014,7 39 4 0,0
15.08.2017 11:00:00 19,4 15,7 21,4 18,7 16,9 9 5 20 11 W 1014,0 55 4 0,0
15.08.2017 10:00:00 19,8 16,6 20,8 18,7 16,9 8 4 12 6 W 1013,0 46 10 0,0
15.08.2017 09:00:00 19,0 15,9 19,0 18,8 16,9 10 5 14 7 N 1012,2 58 30 0,0
15.08.2017 08:00:00 17,6 15,6 16,0 18,9 16,9 5 3 14 8 NNW 1012,2 60 7 0,0
15.08.2017 07:00:00 16,7 15,6 15,3 18,9 16,9 8 4 15 8 WNW 1011,9 60 0 0,0
15.08.2017 06:00:00 17,2 14,8 15,5 19,1 16,9 9 5 30 16 E 1010,8 39 0 0,4
15.08.2017 05:00:00 17,6 12,9 16,4 19,2 16,9 16 9 24 13 SE 1011,7 55 0 0,0
15.08.2017 04:00:00 17,0 12,5 14,2 19,3 16,9 13 7 21 12 ESE 1012,4 60 0 0,0
15.08.2017 03:00:00 16,1 12,1 11,9 19,4 16,9 10 5 14 7 ESE 1013,6 60 0 0,0
15.08.2017 02:00:00 16,2 12,2 12,7 19,6 16,9 9 5 14 7 ESE 1013,9 60 0 0,0
15.08.2017 01:00:00 17,1 12,6 12,2 19,7 16,9 10 6 13 7 E 1014,1 60 0 0,0
15.08.2017 00:00:00 17,7 12,2 12,6 19,8 16,9 7 4 9 5 ESE 1014,7 60 0 0,0
14.08.2017 23:00:00 19,1 11,9 15,2 19,8 16,9 3 2 17 9 E 1014,9 60 0 0,0
14.08.2017 22:00:00 20,5 12,2 18,3 19,7 16,9 16 8 19 11 E 1014,2 60 0 0,0
14.08.2017 21:00:00 21,4 12,0 20,4 19,6 16,9 11 6 14 8 E 1014,5 60 0 0,0
14.08.2017 20:00:00 24,3 11,6 24,2 19,5 16,9 9 5 13 7 SE 1014,6 60 21 0,0
14.08.2017 19:00:00 25,0 10,8 27,0 19,3 16,9 9 5 18 10 SE 1015,0 59 14 0,0
14.08.2017 18:00:00 25,5 10,5 30,0 19,0 16,9 11 6 26 14 SSE 1015,2 60 60 0,0
14.08.2017 17:00:00 25,7 10,3 30,2 18,6 16,9 14 7 24 13 S 1015,4 60 60 0,0
14.08.2017 16:00:00 24,8 10,3 31,1 18,2 16,9 13 7 24 13 SSE 1015,9 60 60 0,0
14.08.2017 15:00:00 24,4 10,7 29,5 17,9 16,9 10 5 28 15 S 1016,7 57 60 0,0
14.08.2017 14:00:00 24,0 10,6 30,6 17,6 16,9 13 7 27 15 SE 1017,0 60 60 0,0
14.08.2017 13:00:00 22,9 10,0 29,0 17,4 16,9 8 5 22 12 S 1017,7 59 60 0,0
14.08.2017 12:00:00 21,7 10,8 26,2 17,3 16,9 10 5 18 10 S 1018,4 48 60 0,0
14.08.2017 11:00:00 21,0 11,9 23,4 17,2 16,9 8 4 16 9 SE 1018,7 50 60 0,0
14.08.2017 10:00:00 18,7 11,7 20,6 17,3 16,9 8 4 17 9 SSE 1018,9 44 60 0,0
14.08.2017 09:00:00 16,3 12,1 13,8 17,5 16,9 8 4 13 7 SE 1019,1 44 60 0,0
14.08.2017 08:00:00 13,5 11,0 6,6 17,6 16,9 7 4 11 6 E 1019,0 20 37 0,0
14.08.2017 07:00:00 10,7 9,8 6,5 17,8 16,9 6 3 10 5 E 1019,1 31 0 0,0
14.08.2017 06:00:00 10,7 9,3 6,6 17,9 16,9 5 3 7 4 E 1019,4 37 0 0,0
14.08.2017 05:00:00 11,1 9,5 7,2 18,0 16,9 3 1 9 5 SSE 1019,7 43 0 0,0
14.08.2017 04:00:00 11,6 9,5 7,8 18,2 16,9 5 3 13 7 ENE 1020,0 41 0 0,0
14.08.2017 03:00:00 11,7 9,6 10,3 18,3 17,0 11 6 14 7 NE 1020,1 58 0 0,0
14.08.2017 02:00:00 14,1 9,7 13,1 18,4 17,0 11 6 15 8 NE 1020,5 60 0 0,0
14.08.2017 01:00:00 15,0 10,2 14,0 18,5 17,0 10 5 16 9 NNE 1020,9 60 0 0,0
14.08.2017 00:00:00 15,6 10,4 14,8 18,5 16,9 13 7 18 10 NNE 1021,3 60 0 0,0
13.08.2017 23:00:00 15,9 10,6 15,2 18,6 17,0 10 5 17 9 NNE 1021,5 60 0 0,0
13.08.2017 22:00:00 16,3 11,2 15,4 18,6 17,0 13 7 21 11 N 1021,3 60 0 0,0
13.08.2017 21:00:00 17,1 11,4 16,3 18,5 17,0 13 7 20 11 N 1020,9 60 0 0,0
13.08.2017 20:00:00 19,0 12,3 18,9 18,4 17,0 10 5 18 10 N 1020,4 60 5 0,0
13.08.2017 19:00:00 20,3 11,2 21,6 18,2 16,9 7 4 11 6 N 1020,4 60 10 0,0
13.08.2017 18:00:00 20,1 10,5 21,3 18,0 17,0 8 4 15 8 N 1020,6 60 0 0,0
13.08.2017 17:00:00 21,3 10,1 25,4 17,8 17,0 3 2 13 7 NNE 1020,7 19 8 0,0
13.08.2017 16:00:00 21,7 10,8 24,5 17,4 16,9 6 4 19 10 WNW 1021,0 17 24 0,0
13.08.2017 15:00:00 20,6 11,2 24,2 17,1 17,0 6 3 15 8 NW 1021,2 15 22 0,0
13.08.2017 14:00:00 20,2 9,1 24,4 16,8 17,0 4 2 16 9 NE 1021,4 59 46 0,0
13.08.2017 13:00:00 19,9 9,5 21,9 16,6 17,0 7 4 17 9 WSW 1021,6 60 47 0,0
13.08.2017 12:00:00 18,7 12,9 19,3 16,5 17,0 6 4 16 9 WNW 1021,9 16 44 0,0
13.08.2017 11:00:00 16,5 13,0 19,3 16,5 17,0 8 5 16 9 WNW 1021,9 16 35 0,0
13.08.2017 10:00:00 14,7 13,2 14,5 16,6 17,0 7 4 13 7 WNW 1021,8 10 20 0,0
13.08.2017 09:00:00 12,8 12,3 12,0 16,6 17,0 7 4 11 6 W 1021,6 14 0 0,0
13.08.2017 08:00:00 11,6 11,1 9,9 16,8 17,0 5 3 9 5 SW 1021,3 18 0 0,0
13.08.2017 07:00:00 10,2 9,7 5,2 16,9 17,0 8 4 10 6 SSW 1021,1 14 0 0,2
13.08.2017 06:00:00 8,9 8,3 3,7 17,1 17,0 9 5 10 6 SSW 1021,1 4,9 0 0,0
13.08.2017 05:00:00 8,8 8,2 3,7 17,3 17,0 5 3 10 6 SW 1021,1 1,0 0 0,0
13.08.2017 04:00:00 9,1 8,5 4,0 17,4 17,0 10 5 12 6 WSW 1021,3 5 0 0,0
13.08.2017 03:00:00 9,7 9,1 4,3 17,6 17,0 8 4 10 6 SW 1021,2 19 0 0,0
13.08.2017 02:00:00 9,2 8,1 4,8 17,7 17,0 6 3 12 7 WSW 1021,4 19 0 0,0
13.08.2017 01:00:00 10,3 8,9 6,1 17,8 17,0 9 5 13 7 W 1021,4 60 0 0,0
13.08.2017 00:00:00 12,6 9,8 9,3 17,8 17,0 10 5 16 9 WSW 1020,9 60 0 0,0
12.08.2017 23:00:00 13,5 9,7 11,8 17,9 17,0 14 7 26 14 WNW 1020,7 56 0 0,0
12.08.2017 22:00:00 14,8 11,8 14,0 17,8 17,0 14 7 22 12 W 1020,5 43 0 0,0
12.08.2017 21:00:00 15,7 11,9 15,0 17,8 17,0 13 7 28 15 WNW 1019,9 60 3 0,0
12.08.2017 20:00:00 16,9 13,8 16,9 17,8 17,0 15 8 35 19 WNW 1019,5 58 0 0,0
12.08.2017 19:00:00 17,0 14,8 17,1 17,8 17,0 21 11 32 17 WNW 1019,2 19 0 0,0
12.08.2017 18:00:00 16,9 16,1 16,9 17,7 17,0 15 8 36 19 WNW 1019,1 6 0 1,0
12.08.2017 17:00:00 17,6 16,6 17,8 17,6 17,0 14 8 31 17 W 1018,8 9 0 0,8
12.08.2017 16:00:00 18,6 15,8 17,5 17,5 17,0 20 11 30 16 SW 1018,3 54 0 0,0
12.08.2017 15:00:00 17,5 16,0 17,2 17,4 17,0 16 9 30 16 SW 1018,8 15 0 0,2
12.08.2017 14:00:00 17,8 15,1 18,7 17,4 17,0 20 11 31 17 SW 1018,8 18 0 0,0
12.08.2017 13:00:00 17,7 16,0 16,5 17,4 17,1 18 10 25 13 WSW 1018,6 17 0 0,0
12.08.2017 12:00:00 15,8 15,2 15,3 17,4 17,0 16 9 23 13 SW 1018,7 7 0 0,2
12.08.2017 11:00:00 15,1 14,5 15,0 17,4 17,0 16 9 23 13 SW 1018,7 3,9 0 1,4
12.08.2017 10:00:00 14,7 13,9 14,3 17,5 17,0 14 8 22 12 SW 1018,6 2,3 0 2,0
12.08.2017 09:00:00 14,6 13,0 14,1 17,5 17,0 12 7 23 12 WSW 1018,4 7 0 0,0
12.08.2017 08:00:00 15,0 11,8 14,3 17,6 17,0 17 9 26 14 WSW 1018,1 60 0 0,0
12.08.2017 07:00:00 14,7 11,5 14,3 17,7 17,0 18 10 29 16 WSW 1017,9 18 0 0,0
12.08.2017 06:00:00 14,6 11,2 14,4 17,8 17,1 17 9 23 12 WSW 1018,0 60 0 0,0
12.08.2017 05:00:00 14,5 11,5 14,4 17,9 17,0 13 7 28 15 WSW 1018,4 59 0 0,0
12.08.2017 04:00:00 14,5 11,3 14,3 18,0 17,1 18 10 26 14 WSW 1018,8 58 0 0,0
12.08.2017 03:00:00 14,5 10,7 14,2 18,1 17,1 14 8 24 13 WSW 1019,3 60 0 0,0
12.08.2017 02:00:00 14,3 10,1 14,0 18,2 17,1 15 8 26 14 WSW 1019,5 58 0 0,0
12.08.2017 01:00:00 14,3 9,5 14,0 18,3 17,1 16 8 27 15 WSW 1020,0 60 0 0,0
12.08.2017 00:00:00 14,4 9,6 12,6 18,4 17,1 16 9 26 14 WSW 1020,3 60 0 0,0
11.08.2017 23:00:00 13,5 9,7 11,1 18,4 17,1 12 6 15 8 W 1020,9 60 0 0,0
11.08.2017 22:00:00 14,3 9,5 12,9 18,5 17,1 11 6 28 15 W 1021,1 49 0 0,0
11.08.2017 21:00:00 15,6 9,9 15,3 18,4 17,0 14 8 32 17 WNW 1020,9 60 0 0,0
11.08.2017 20:00:00 17,7 10,1 18,6 18,3 17,0 19 10 38 21 WNW 1020,5 57 44 0,0
11.08.2017 19:00:00 18,5 9,8 19,8 18,2 17,1 26 14 37 20 WNW 1020,2 60 42 0,0
11.08.2017 18:00:00 20,4 11,1 22,3 18,0 17,1 19 11 33 18 W 1019,5 19 42 0,0
11.08.2017 17:00:00 20,1 11,3 21,6 17,9 17,1 21 11 34 18 W 1020,2 60 35 0,0
11.08.2017 16:00:00 19,3 11,8 20,1 17,7 17,0 20 11 29 16 WNW 1020,5 37 8 0,0
11.08.2017 15:00:00 18,4 11,5 20,1 17,6 17,1 15 8 26 14 WNW 1021,0 54 1 0,0
11.08.2017 14:00:00 18,3 11,1 21,1 17,5 17,1 13 7 19 10 WNW 1021,0 40 0 0,0
11.08.2017 13:00:00 18,2 12,0 19,9 17,4 17,1 7 4 17 9 NW 1021,1 43 1 0,0
11.08.2017 12:00:00 17,0 12,1 19,6 17,3 17,1 9 5 25 13 NNW 1021,4 39 1 0,0
11.08.2017 11:00:00 16,7 12,4 17,3 17,3 17,1 11 6 21 11 WNW 1021,2 50 11 0,0
11.08.2017 10:00:00 15,6 13,1 15,7 17,4 17,1 7 4 14 8 NW 1021,1 54 0 0,0
11.08.2017 09:00:00 14,7 13,6 15,2 17,4 17,1 9 5 17 9 WNW 1020,9 17 16 0,0
11.08.2017 08:00:00 14,0 13,5 12,6 17,5 17,1 5 3 11 6 NW 1020,8 8 8 0,0
11.08.2017 07:00:00 13,2 12,6 12,8 17,6 17,1 7 4 18 10 NW 1020,9 10 0 0,0
11.08.2017 06:00:00 13,6 13,1 13,0 17,7 17,1 8 5 13 7 NW 1020,7 4,7 0 0,0
11.08.2017 05:00:00 13,5 12,9 13,1 17,7 17,1 6 3 10 6 NNW 1020,9 7 0 0,0
11.08.2017 04:00:00 13,5 12,9 13,1 17,8 17,1 7 4 13 7 NNW 1021,1 8 0 0,2
11.08.2017 03:00:00 13,5 12,9 13,0 17,9 17,1 8 4 16 9 NNW 1021,5 6 0 0,0
11.08.2017 02:00:00 13,3 12,7 12,9 18,0 17,1 11 6 19 10 NNW 1021,7 9 0 0,2
11.08.2017 01:00:00 13,3 12,7 12,8 18,1 17,1 12 6 17 9 NW 1022,0 6 0 0,6
11.08.2017 00:00:00 13,2 12,4 12,8 18,2 17,1 7 4 13 7 NNW 1022,2 8 0 0,4
10.08.2017 23:00:00 13,3 12,5 12,6 18,3 17,1 7 4 13 7 NNW 1022,1 9 0 0,8
10.08.2017 22:00:00 13,3 12,0 12,7 18,3 17,1 10 5 17 9 NNE 1022,0 13 0 1,2
10.08.2017 21:00:00 13,4 12,1 12,6 18,3 17,1 13 7 22 12 N 1021,8 13 0 2,0
10.08.2017 20:00:00 13,8 11,0 12,8 18,2 17,1 16 9 34 19 N 1021,5 13 0 0,2
10.08.2017 19:00:00 16,5 9,7 17,3 18,1 17,1 22 12 35 19 N 1020,7 55 25 0,0
10.08.2017 18:00:00 18,1 11,2 18,3 18,0 17,1 22 12 37 20 N 1020,6 20 16 0,0
10.08.2017 17:00:00 17,4 11,9 18,2 17,8 17,1 23 12 41 22 N 1020,2 21 0 0,0

tt = Température de l'air
td = dewpoint
tt 5cm = Température de l'air 5cm
tt -20cm = Température de l'air -20cm
tt -100cm = Température de l'air -100cm
ff = Vitesse du vent
fx = gusts
dd = Direction du vent
ppp = reduced air pressure
vv = visibility
sd = Ensoleillement
rr = Quantités de précipitations

stations d'obs. à proximité